Cloud_Cover
83 96 100 100 100 100 100 100 5 40 0 0 0 0 3 5 5 0 24 31 70 23 5 5 4 0 58 99 61 100 27 0 0 0 0 0 0 0 0 25 78 100 100 100
80 100 100 100 100 100 100 100 49 16 5 0 0 0 7 10 5 6 46 83 100 99 14 3 0 0 99 99 100 61 0 0 0 0 0 0 0 0 0 9 51 100 100 100
68 99 100 98 100 100 100 100 100 100 3 5 5 1 5 5 28 36 42 69 100 100 100 86 27 26 66 82 63 0 1 2 6 0 0 0 0 0 0 11 29 71 63 100
99 100 100 100 82 100 100 100 100 100 5 5 5 2 5 5 12 5 9 47 100 100 100 99 73 92 91 41 0 0 9 6 0 0 0 4 0 8 53 65 100 95 90 78
100 100 100 100 100 100 100 100 36 10 5 5 5 4 1 5 5 3 5 45 99 79 97 95 69 86 38 0 0 8 30 5 8 14 10 2 32 27 74 100 100 100 100 100
100 100 100 100 100 100 91 90 5 14 5 5 36 5 31 5 5 5 5 59 74 47 86 63 23 9 0 0 3 4 5 5 2 3 23 50 100 81 100 100 100 100 100 100
100 100 100 100 100 90 88 79 82 25 98 88 5 5 5 9 8 5 7 42 35 37 44 4 0 0 0 0 0 5 5 2 0 1 13 41 100 100 100 100 100 100 100 100
73 100 97 100 100 65 100 84 20 100 100 99 5 27 5 7 87 16 5 5 0 1 0 11 1 0 0 0 0 5 3 0 0 7 28 94 100 100 100 94 87 100 100 85
43 76 100 99 100 100 99 47 32 7 5 8 93 5 5 76 100 8 5 5 0 4 3 0 2 0 0 0 0 0 0 0 0 31 96 89 100 100 96 100 64 100 100 47
100 80 100 100 97 100 100 47 21 33 16 100 99 5 28 81 67 5 2 5 5 21 5 5 5 0 0 0 0 0 0 0 11 57 87 100 100 100 100 89 92 100 80 63
100 100 99 100 100 100 100 90 23 88 22 97 100 100 5 58 5 5 5 5 7 18 6 5 2 0 0 0 0 0 0 5 18 63 99 100 100 100 100 100 97 77 96 97
52 100 100 100 100 100 100 100 100 100 100 58 17 11 6 8 12 5 5 39 52 14 23 5 0 0 0 0 0 0 0 5 30 89 100 100 100 100 100 96 80 87 86 90
0 43 100 100 100 100 100 74 100 100 100 76 48 27 71 6 49 5 5 10 83 6 5 0 0 0 0 0 0 0 0 8 53 100 100 100 100 100 100 99 77 60 97 97
5 5 4 100 100 100 100 99 100 100 100 50 14 26 84 70 62 10 8 61 82 70 6 0 1 0 0 0 0 0 1 15 68 91 100 100 100 100 100 100 100 100 44 98
5 5 5 7 100 100 100 100 86 100 42 10 58 16 76 55 60 34 61 56 91 5 5 4 2 0 0 0 0 0 3 31 82 100 100 100 100 84 60 88 90 19 46 8
6 5 5 5 87 100 100 100 100 100 100 14 49 41 66 51 55 48 93 58 91 38 5 5 0 0 0 0 0 0 6 19 59 100 100 100 81 46 42 71 88 34 5 19
100 100 28 9 100 100 100 99 100 100 84 27 7 84 100 18 76 61 69 65 92 71 13 5 1 5 5 0 0 0 7 4 42 100 88 79 50 28 26 90 84 7 7 5
100 63 97 100 100 100 100 100 100 100 98 55 77 98 98 36 34 27 86 96 96 58 21 5 0 5 5 4 0 0 0 7 33 94 76 60 70 52 36 91 63 48 6 53
97 100 100 100 100 100 100 100 100 100 55 67 100 22 5 14 6 18 93 52 96 63 75 9 6 5 5 5 0 0 2 11 32 74 78 45 63 62 11 6 5 77 26 84
100 100 100 100 100 100 100 100 85 90 58 97 32 62 70 8 9 60 61 96 100 100 100 35 15 6 3 2 0 0 6 2 54 68 58 36 66 100 81 29 31 100 72 54
100 100 100 100 100 100 100 100 90 97 98 83 100 100 100 100 41 16 100 99 72 100 100 63 27 37 19 10 35 13 0 6 42 36 60 74 56 100 100 98 97 61 51 31
88 95 83 96 100 100 100 85 97 92 88 100 100 100 100 100 93 73 100 100 100 100 100 93 15 8 29 19 49 99 74 8 12 53 84 100 70 64 100 100 100 100 92 100
100 94 54 96 54 98 100 87 100 100 100 95 98 100 100 100 75 98 100 98 100 100 100 100 64 100 80 9 5 76 99 70 51 89 100 100 98 97 83 100 100 100 100 86
76 82 89 46 32 57 99 100 100 100 100 100 100 100 100 100 100 97 100 100 100 100 100 100 100 100 99 66 17 8 60 98 54 100 100 100 100 68 33 70 100 100 100 100
98 100 54 51 62 74 100 100 100 100 100 100 100 100 100 100 100 100 100 100 100 100 100 100 100 100 88 82 5 89 100 95 84 100 100 100 100 100 71 81 78 100 100 100
46 99 100 100 100 97 96 52 100 100 100 100 100 100 100 82 100 100 100 100 100 100 100 100 100 100 36 54 91 100 89 100 100 100 100 97 98 100 98 64 98 100 100 100